GW3281 Weather Reports


time (UTC)temp
C
wind
direction
speed
KPH
gust
KPH
rain 1hr
cm
rain 24hr
cm
rain mn
cm
humidity
%
barometer
mb
20260509150039 16 212 6.4 14.5 0.00 0.00 0.00 77 1005.5
20260509145019 16 244 6.4 16.1 0.00 0.00 0.00 78 1005.5
20260509144036 15 247 4.8 14.5 0.00 0.00 0.00 80 1005.5
20260509143016 15 207 4.8 20.9 0.00 0.00 0.00 81 1005.6
20260509142036 15 221 4.8 14.5 0.00 0.00 0.00 82 1005.7
20260509141100 14 257 4.8 12.9 0.00 0.00 0.00 84 1005.7
20260509140017 13 233 3.2 9.7 0.00 0.00 0.00 85 1005.7
20260509135017 13 215 4.8 14.5 0.00 0.00 0.00 86 1005.9
20260509134017 12 219 4.8 12.9 0.00 0.00 0.00 88 1006.4
20260509133017 12 221 4.8 12.9 0.00 0.00 0.00 90 1007.1
20260509132038 11 185 4.8 11.3 0.00 0.00 0.00 91 1008.0
20260509131018 11 169 3.2 12.9 0.00 0.00 0.00 92 1009.1
20260509130018 11 200 3.2 12.9 0.00 0.00 0.00 93 1009.6
20260509125018 10 84 3.2 8.0 0.00 0.00 0.00 94 1009.7
20260509124018 10 77 3.2 6.4 0.00 0.00 0.00 94 1009.8
20260509123018 10 241 3.2 11.3 0.00 0.00 0.00 95 1009.9
20260509122016 10 34 3.2 9.7 0.00 0.00 0.00 95 1009.9
20260509121019 10 210 3.2 8.0 0.00 0.00 0.00 95 1009.9
20260509120019 10 235 3.2 6.4 0.00 0.00 0.00 95 1009.9
20260509115019 9 219 3.2 8.0 0.00 0.00 0.00 95 1009.4
20260509114036 9 162 3.2 9.7 0.00 0.00 0.00 95 1009.2
20260509113016 9 173 3.2 6.4 0.00 0.00 0.00 95 1009.0
20260509112037 9 150 3.2 6.4 0.00 0.00 0.00 95 1009.0
20260509111020 9 192 3.2 8.0 0.00 0.00 0.00 95 1009.1
20260509110040 9 171 1.6 6.4 0.00 0.00 0.00 95 1009.1
20260509105017 9 174 3.2 6.4 0.00 0.00 0.00 95 1009.1
20260509104017 9 146 3.2 8.0 0.00 0.00 0.00 95 1009.3
20260509103017 9 137 1.6 6.4 0.00 0.00 0.00 95 1009.2
20260509102018 9 134 3.2 6.4 0.00 0.00 0.00 95 1009.3
20260509101018 9 153 1.6 4.8 0.00 0.00 0.00 95 1009.4
20260509100018 8 192 1.6 8.0 0.00 0.00 0.00 95 1009.4
20260509095018 8 165 1.6 4.8 0.00 0.00 0.00 95 1009.4
20260509094038 8 150 1.6 4.8 0.00 0.00 0.00 95 1009.4
20260509093018 8 132 1.6 4.8 0.00 0.00 0.00 95 1009.5
20260509092016 8 119 1.6 3.2 0.00 0.00 0.00 94 1009.5
20260509091019 8 120 1.6 3.2 0.00 0.00 0.00 94 1009.5
20260509090019 9 130 1.6 3.2 0.00 0.00 0.00 94 1009.4
20260509085019 9 117 1.6 3.2 0.00 0.00 0.00 94 1009.4
20260509084016 9 120 1.6 3.2 0.00 0.00 0.00 94 1009.3
20260509083036 9 112 1.6 3.2 0.00 0.00 0.00 94 1009.3
20260509082016 9 135 1.6 4.8 0.00 0.00 0.00 94 1009.1
20260509081020 10 113 1.6 3.2 0.00 0.00 0.00 93 1009.1
20260509080017 10 106 1.6 4.8 0.00 0.00 0.00 93 1009.1
20260509075017 10 111 1.6 6.4 0.00 0.00 0.00 93 1009.0
20260509074017 10 92 3.2 4.8 0.00 0.00 0.00 93 1008.8
20260509073017 10 144 1.6 6.4 0.00 0.00 0.00 92 1008.8
20260509072017 10 107 1.6 4.8 0.00 0.00 0.00 92 1008.6
20260509071018 10 86 1.6 3.2 0.00 0.00 0.00 92 1008.4
20260509070018 10 103 1.6 4.8 0.00 0.00 0.00 91 1008.2
20260509065018 10 80 1.6 4.8 0.00 0.00 0.00 91 1008.1
20260509064018 10 77 1.6 4.8 0.00 0.00 0.00 90 1007.7
20260509063018 11 83 1.6 3.2 0.00 0.00 0.00 90 1007.4
20260509062015 11 81 1.6 4.8 0.00 0.00 0.00 89 1007.3
20260509061019 11 117 1.6 3.2 0.00 0.00 0.00 89 1007.4
20260509060019 11 112 1.6 4.8 0.00 0.00 0.00 88 1007.5
20260509055019 11 77 1.6 4.8 0.00 0.00 0.00 88 1007.5
20260509054016 11 165 1.6 11.3 0.00 0.00 0.00 88 1007.4
20260509053017 11 85 1.6 4.8 0.00 0.00 0.00 88 1007.4
20260509052015 11 105 1.6 4.8 0.00 0.00 0.00 88 1007.6
20260509051039 11 90 1.6 6.4 0.00 0.00 0.00 89 1007.6
20260509050017 11 97 1.6 4.8 0.00 0.00 0.00 89 1007.6
20260509045017 11 78 1.6 3.2 0.00 0.00 0.00 88 1007.6
20260509044036 11 90 3.2 6.4 0.00 0.00 0.00 88 1007.6
20260509043016 12 95 3.2 4.8 0.00 0.00 0.00 87 1007.5
20260509042017 12 102 3.2 4.8 0.00 0.00 0.00 87 1007.4
20260509041018 12 105 1.6 6.4 0.00 0.00 0.00 86 1007.4
20260509040017 12 89 3.2 4.8 0.00 0.00 0.00 85 1007.3
20260509035017 12 101 3.2 4.8 0.00 0.00 0.00 84 1007.2
20260509034017 12 122 3.2 6.4 0.00 0.00 0.00 84 1007.2
20260509033018 12 102 3.2 6.4 0.00 0.00 0.00 83 1007.1
20260509032038 13 99 3.2 4.8 0.00 0.00 0.00 81 1007.0
20260509031019 13 122 3.2 6.4 0.00 0.00 0.00 79 1006.9
20260509030016 13 197 1.6 8.0 0.00 0.00 0.00 78 1006.9
20260509025016 13 134 1.6 4.8 0.00 0.00 0.00 76 1006.9
20260509024019 14 188 1.6 6.4 0.00 0.00 0.00 75 1006.9
20260509023019 14 190 1.6 8.0 0.00 0.00 0.00 75 1006.9
20260509022016 14 220 3.2 11.3 0.00 0.00 0.00 74 1006.9
20260509021017 14 209 1.6 6.4 0.00 0.00 0.00 75 1006.9
20260509020017 15 190 1.6 8.0 0.00 0.00 0.00 74 1006.7
20260509015020 15 171 1.6 6.4 0.00 0.00 0.00 74 1006.6
20260509014017 15 171 3.2 6.4 0.00 0.00 0.00 74 1006.5
20260509013037 15 173 3.2 11.3 0.00 0.00 0.00 73 1006.5
20260509012018 15 188 3.2 14.5 0.00 0.00 0.00 71 1006.4
20260509011018 16 112 1.6 4.8 0.00 0.00 0.00 68 1006.5
20260509010017 16 115 1.6 4.8 0.00 0.00 0.00 66 1006.4
20260509005018 16 144 3.2 9.7 0.00 0.00 0.00 63 1006.5
20260509004018 16 135 3.2 6.4 0.00 0.00 0.00 60 1006.4
20260509003038 17 154 3.2 6.4 0.00 0.00 0.00 60 1006.4
20260509002018 17 211 3.2 6.4 0.00 0.00 0.00 59 1006.3
20260509001019 17 229 4.8 12.9 0.00 0.00 0.00 59 1006.4
20260509000016 18 212 3.2 11.3 0.00 0.00 0.00 57 1006.3
20260508235019 18 237 3.2 8.0 0.00 0.00 0.00 57 1006.4
20260508234119 18 212 3.2 9.7 0.00 0.00 0.00 57 1006.4
20260508233019 18 236 3.2 9.7 0.00 0.00 0.00 57 1006.4
20260508232016 19 202 3.2 9.7 0.00 0.03 0.00 58 1006.5
20260508231036 19 221 4.8 11.3 0.00 0.03 0.00 55 1006.4
20260508230017 19 224 3.2 9.7 0.00 0.03 0.00 58 1006.5
20260508225020 19 228 3.2 8.0 0.00 0.03 0.00 57 1006.6
20260508224017 19 223 6.4 14.5 0.00 0.03 0.00 54 1006.6
20260508223037 18 229 3.2 9.7 0.00 0.03 0.00 57 1006.6
20260508222018 18 238 4.8 11.3 0.00 0.03 0.00 56 1006.6
20260508221017 18 232 3.2 9.7 0.00 0.03 0.00 55 1006.6
20260508220018 19 212 3.2 12.9 0.00 0.03 0.00 55 1006.7
20260508215018 19 234 3.2 11.3 0.00 0.03 0.00 56 1006.7
20260508214018 19 212 4.8 11.3 0.00 0.03 0.00 53 1006.7
20260508213018 20 220 4.8 19.3 0.00 0.03 0.00 52 1006.7
20260508212038 20 226 4.8 16.1 0.00 0.03 0.00 53 1006.7
20260508211019 19 222 3.2 8.0 0.00 0.03 0.00 54 1006.8
20260508210016 19 237 4.8 11.3 0.00 0.03 0.00 56 1006.9
20260508205019 19 162 3.2 11.3 0.00 0.03 0.00 55 1006.9
20260508204019 18 248 4.8 11.3 0.00 0.03 0.00 57 1007.0
20260508203016 18 174 4.8 9.7 0.00 0.03 0.00 58 1007.2
20260508202017 18 157 3.2 8.0 0.00 0.03 0.00 58 1007.3
20260508201037 18 200 3.2 9.7 0.00 0.03 0.00 57 1007.5
20260508200017 18 247 4.8 14.5 0.00 0.03 0.00 58 1007.6
20260508195020 18 205 3.2 11.3 0.00 0.03 0.00 59 1007.7
20260508194037 18 236 4.8 11.3 0.00 0.03 0.00 59 1007.9
20260508193017 18 213 4.8 14.5 0.00 0.03 0.00 62 1007.9
20260508192017 17 235 3.2 9.7 0.00 0.03 0.00 62 1007.9
20260508191018 18 185 3.2 6.4 0.00 0.03 0.00 61 1008.0
20260508190018 18 226 3.2 8.0 0.00 0.03 0.00 62 1008.1
20260508185018 18 218 3.2 8.0 0.00 0.03 0.00 59 1008.2
20260508184038 18 194 3.2 8.0 0.00 0.03 0.00 58 1008.2
20260508183018 18 100 3.2 8.0 0.00 0.03 0.00 59 1008.4
20260508182018 17 95 3.2 9.7 0.00 0.03 0.00 60 1008.5
20260508181016 17 204 3.2 6.4 0.00 0.03 0.00 61 1008.6
20260508180016 17 121 3.2 8.0 0.00 0.03 0.00 62 1008.6
20260508175019 17 139 3.2 6.4 0.00 0.03 0.00 62 1008.8
20260508174019 17 96 3.2 8.0 0.00 0.03 0.00 62 1008.8
20260508173020 17 135 3.2 9.7 0.00 0.03 0.00 63 1009.0
20260508172037 17 85 4.8 8.0 0.00 0.03 0.00 63 1009.2
20260508171017 17 109 4.8 9.7 0.00 0.03 0.00 64 1009.3
20260508170017 16 192 3.2 12.9 0.00 0.03 0.00 69 1009.5
20260508165020 16 92 4.8 9.7 0.00 0.03 0.00 69 1009.6
20260508164017 16 133 3.2 8.0 0.00 0.03 0.00 68 1009.7
20260508163017 16 128 3.2 9.7 0.00 0.03 0.00 70 1009.9
20260508162017 16 111 3.2 9.7 0.00 0.03 0.00 71 1010.0
20260508161018 16 87 4.8 6.4 0.00 0.03 0.00 70 1010.0
20260508160018 15 132 3.2 8.0 0.00 0.03 0.00 71 1010.1
20260508155018 15 92 3.2 9.7 0.00 0.03 0.00 73 1010.1
20260508154118 15 152 3.2 8.0 0.00 0.03 0.00 72 1010.2
20260508153018 15 110 4.8 11.3 0.00 0.03 0.00 72 1010.2
20260508152039 15 129 3.2 6.4 0.00 0.03 0.00 73 1010.3
20260508151036 15 115 3.2 9.7 0.00 0.03 0.00 73 1010.3